Location: Dennis Manor
(64.8292°N, 147.5397°W)
Time: 09:25:46
(UTC+00:00)

Envisat - Pass Details

Date: 04 November 2020
Orbit: 764 x 766 km, 98.1° (Epoch: 05 December)

Event Time Altitude Azimuth Distance (km) Brightness Sun altitude
Rises 13:38:20 0° 20° (NNE) 3,250 6.8 -26.2°
Reaches altitude 10° 13:43:22 10° 64° (ENE) 2,316 6.5 -25.7°
Maximum altitude 13:43:59 10° 70° (ENE) 2,302 6.5 -25.6°
Drops below altitude 10° 13:44:35 10° 77° (ENE) 2,314 6.5 -25.6°
Sets 13:49:35 0° 121° (ESE) 3,232 6.8 -25.1°
